Location: Winthrop
(48.4780°N, 120.1850°W)
Time: 16:27:26
(UTC-07:00)

Explorer 7 - Pass Details

Date: 05 February 2023
Orbit: 478 x 657 km, 50.3° (Epoch: 30 March)

Event Time Altitude Azimuth Distance (km) Brightness Sun altitude
Rises 17:57:12 0° 282° (WNW) 2,882 11.8 -8.9°
Reaches altitude 10° 18:00:29 10° 257° (WSW) 2,008 11.4 -9.4°
Maximum altitude 18:02:51 14° 226° (SW) 1,779 10.4 -9.8°
Drops below altitude 10° 18:05:14 10° 196° (SSW) 2,042 10.1 -10.2°
Sets 18:08:38 0° 171° (S) 2,967 10.6 -10.7°
